Погода в Черноруде

Россия / Иркутская область     53˚00′04″N   106˚42′40″E
темп.,
°C
ветер,
м/с
пор.,
м/с
влажн.,
%
обл.,
%
осадки,
мм/ч
давл.,
гПа
погр.,
м
17 января, вс
вс1723:00−22˚сз358679 0.0 1030403
02:00−24˚сз349586 0.1 1029263
05:00−26˚сз4510098 0.0 1029189
08:00−26˚сз5510099 0.0 1029177
11:00−23˚сз4484100 0.0 1030171
14:00−20˚ссз2265100 0.0 1028292
17:00−21˚с2171100 0.0 1027245
20:00−22˚с2277100 0.0 1028228
18 января, пн
пн1823:00−21˚ссв3382100 0.0 1026260
02:00−18˚св4596100 0.1 1024458
05:00−17˚св5695100 0.4 1022511
08:00−17˚св6797100 0.7 1021523
11:00−16˚ссв3497100 0.7 1022386
14:00−14˚зюз2390100 1.4 1020264
17:00−14˚зюз3492100 0.1 1019264
20:00−14˚зсз348990 0.2 1018199
19 января, вт
вт1923:00−13˚зсз238387 0.0 1016142
02:00−12˚зюз238394 0.0 1013167
05:00−11˚зюз468397 0.0 1011210
08:00−10˚зсз497387 0.0 1012331
11:00−10˚зсз2126525 0.0 10171141
14:00−10˚зсз6146248 0.0 10191422
17:00−14˚зсз48741 0.0 1022539
20:00−18˚зсз349141 0.0 1025184
20 января, ср
ср2023:00−19˚зсз449689 0.0 1026140
02:00−18˚сз338494 0.0 1025128
05:00−17˚зсз1168100 0.0 1023131
08:00−16˚зсз117585 0.0 1021106
11:00−12˚юз3688100 0.0 1019375
14:00−9˚зюз2376100 0.0 1018362
17:00−10˚з227770 0.0 1018164
20:00−9˚сз228084 0.0 1018104
21 января, чт
чт2123:00−9˚с118099 0.0 1016117
02:00−9˚з118298 0.0 1015119
05:00−9˚сз117794 0.0 101692
08:00−8˚сз227495 0.0 101891
11:00−6˚сз237897 0.1 1019156
14:00−4˚зсз127384 0.1 1019371
17:00−6˚з117823 0.0 1020150
20:00−8˚зсз227835 0.0 102069